Estació municipal de El Brull (Osona, P.N. del Montseny)

Consulta les dades en temps real de l'estació municipal de El Brull





Hora UTC 05:50
Temperatura 19.4 ºC
Humitat 59.0 %
Pressió 1020.7 hPa
Pluja 0.0 mm
Velocitat vent 6.5 km/h
Direcció vent SE
Radiació solar 14.2 W/m²

Webcam

Dades diàries 2026-08-31



Hora UTC (hivern +1h; estiu +2h)
Temperatura (ºC) Humitat (%) Pressió (hPa) Velocitat vent (km/h) Precipitació (mm) Radiació solar (W/m²)
Hora UTC Aire Humitat Pressió Vel. Dir. Vel. Max Dir. Intent. màx 5 min. Rad. Sol.
00:10 22.4 47.1 1020.5 1.7 NW 4.5 NW 0.0 0.0
00:20 21.6 49.0 1020.5 2.1 NNE 6.0 NNW 0.0 0.0
00:30 20.9 50.4 1020.5 2.5 SSE 6.2 NNW 0.0 0.0
00:40 20.6 50.7 1020.5 3.8 SSE 7.8 SSE 0.0 0.0
00:50 20.3 51.9 1020.5 2.9 SSE 5.3 SSW 0.0 0.0
01:00 20.2 51.7 1020.5 2.5 SSE 4.1 SSE 0.0 0.0
01:10 20.3 51.7 1020.6 2.0 S 4.0 SW 0.0 0.0
01:20 20.2 52.0 1020.6 3.2 ESE 8.5 SE 0.0 0.0
01:30 20.4 52.2 1020.6 5.7 SE 10.7 SE 0.0 0.0
01:40 20.5 52.5 1020.5 6.4 SE 14.9 SE 0.0 0.0
01:50 20.8 52.7 1020.5 6.6 SE 16.3 SE 0.0 0.0
02:00 21.1 51.8 1020.5 6.7 SE 16.0 SE 0.0 0.0
02:10 20.9 52.5 1020.4 3.3 SE 11.5 SE 0.0 0.0
02:20 20.6 53.2 1020.4 2.7 SE 9.4 SSE 0.0 0.0
02:30 20.9 52.9 1020.4 3.3 SE 9.9 SE 0.0 0.0
02:40 20.9 53.9 1020.4 2.9 ESE 8.1 SE 0.0 0.0
02:50 20.9 54.2 1020.4 2.1 ESE 6.6 SE 0.0 0.0
03:00 20.7 54.9 1020.4 1.9 NE 4.7 NNW 0.0 0.0
03:20 20.0 55.0 1020.5 0.8 SW 4.2 NNW 0.0 0.0
03:30 19.7 56.0 1020.5 0.8 SE 3.4 ESE 0.0 0.0
03:40 19.7 56.5 1020.5 3.2 ESE 5.4 ESE 0.0 0.0
03:50 19.7 54.7 1020.5 2.9 SE 4.5 SE 0.0 0.0
04:00 19.9 55.1 1020.5 2.5 SE 5.3 SSE 0.0 0.0
04:20 19.8 56.7 1020.5 0.7 ESE 2.1 E 0.0 0.0
04:30 19.7 56.7 1020.5 0.8 ENE 3.3 E 0.0 0.0
04:40 19.4 56.7 1020.5 0.8 NW 2.1 WNW 0.0 0.0
04:50 19.2 55.3 1020.5 0.3 SSW 2.2 SSW 0.0 0.0
05:00 19.1 56.2 1020.5 0.0 NNE 0.0 0.0 0.3
05:20 19.0 56.1 1020.6 0.0 NNE 0.0 0.0 3.8
05:30 18.9 56.6 1020.7 1.5 ESE 4.0 SE 0.0 0.0
05:40 19.3 57.3 1020.8 1.5 ESE 5.9 SSE 0.0 11.0
05:50 19.4 59.0 1020.7 6.5 SE 18.2 ESE 0.0 14.2
Màxima 22.4 59.0 1020.8 6.7 SE 18.2 ESE 0.0 14.2
Mínima 18.9 47.1 1020.4
Total 0.0